カタログに戻る

STARLINK-36992

運用中通信SSO
NORAD 68149·PAYLOAD·🇺🇸 United States

打ち上げ Mar 13, 2026 から Vandenberg Space Force Base

Loading…

次のパス (今後24時間)

TLE

最新Source: CelesTrak SupGP

元期: Sep 15, 2026, 04:07 UTC

1 68149C 26049H   26258.17201389 -.00069309  00000+0 -21519-2 0  2589
2 68149  97.2838 278.2628 0001407  88.6558  78.5115 15.33468637    18

AllMySatでSTARLINK-36992をリアルタイム追跡

Download on the App Store